[[{"header":{"parameterUnit":"m.s-1","parameterCategory":1,"la1":30.2991,"la2":30.254,"lo1":-89.0895,"lo2":-89.0444,"dy":0.0017,"dx":0.0017,"nx":28,"ny":28,"refTime":"2024-08-20T21:00:00:Z","depth":0,"parameterNumber":2,"parameterNumberName":"U-component_of_WINDS"},"data":[0,0,0,0,0,0,0,0,0,0,0,0,0,0,0,0,0,0,0,0,0,0,0,0,0,0,0,0,0,0,0,0,0,0,0,0,0,0,0,0,0,0,0,0,0,0,0,0,0,0,0,0,0,0,0,0,0,0,-1.4722,-1.4723,0,-1.4818,-1.4819,-1.482,-1.4813,-1.4812,-1.481,-1.4809,-1.4912,-1.4916,-1.492,0,0,0,0,0,0,0,0,0,0,0,0,0,-1.4538,-1.4542,-1.4722,-1.4723,-1.4725,-1.4818,-1.4819,-1.482,-1.4813,-1.4812,-1.481,-1.4808,-1.491,-1.4915,-1.492,0,0,0,0,0,0,0,0,0,0,0,0,0,-1.4624,-1.4543,-1.4722,-1.4732,-1.4734,-1.4817,-1.4819,-1.4821,-1.4814,-1.4812,-1.4809,-1.4807,-1.4909,-1.4915,-1.4921,-1.5001,0,0,-1.4939,-1.4942,0,0,0,0,0,0,0,0,-1.462,-1.4631,-1.473,-1.4732,-1.4734,-1.4801,-1.4792,-1.4881,-1.4814,-1.4784,-1.4809,-1.4806,-1.4877,-1.4886,-1.4908,-1.5006,-1.5011,-1.494,-1.4944,-1.4946,-1.4948,0,0,0,0,0,0,0,-1.4614,-1.4627,-1.476,-1.4731,-1.4734,-1.4733,-1.4743,-1.4809,-1.4841,-1.4786,-1.4786,-1.4797,-1.4878,-1.4903,-1.4911,-1.5012,-1.494,-1.4945,-1.4949,-1.4951,-1.5181,-1.5183,0,0,0,0,0,0,-1.4605,-1.4622,-1.4757,-1.4763,-1.467,-1.4738,-1.475,-1.4782,-1.4841,-1.4847,-1.4799,-1.4796,-1.4893,-1.4904,-1.4914,-1.5012,-1.4946,-1.4952,-1.4955,-1.5179,-1.5182,-1.5184,0,0,0,0,0,0,-1.4601,-1.4617,-1.4753,-1.4692,-1.471,-1.4744,-1.478,-1.4785,-1.4809,-1.485,-1.4856,-1.4818,-1.4892,-1.4906,-1.4979,-1.5016,-1.4955,-1.496,-1.5176,-1.518,-1.5183,-1.5209,0,0,0,0,0,0,-1.4595,-1.4615,-1.4645,-1.4693,-1.4713,-1.4815,-1.4783,-1.4788,-1.4819,-1.4817,-1.4869,-1.4876,-1.4891,-1.497,-1.4985,-1.5023,-1.4965,-1.5173,-1.5177,-1.5182,-1.5205,-1.5213,-1.522,0,0,0,0,0,-1.4589,-1.465,-1.4647,-1.4663,-1.4751,-1.4817,-1.4829,-1.4844,-1.4822,-1.4853,-1.4879,-1.4874,-1.5009,-1.4978,-1.4995,-1.5035,-1.517,-1.5176,-1.5181,-1.5202,-1.5212,-1.522,0,0,0,0,0,0,-1.4607,-1.4657,-1.4654,-1.4732,-1.477,-1.4816,-1.4856,-1.4854,-1.4901,-1.4897,-1.4915,-1.4926,-1.5,-1.5025,-1.4989,-1.5116,-1.5087,-1.5096,-1.5097,-1.5107,-1.5114,-1.5107,-1.497,0,0,0,0,0,-1.462,-1.4669,-1.471,-1.4775,-1.4794,-1.4822,-1.4851,-1.4859,-1.49,-1.4917,-1.4949,-1.499,-1.5042,-1.5076,-1.5126,-1.5209,-1.522,-1.5245,-1.5252,-1.5258,-1.5266,-1.5312,-1.5323,-1.5202,-1.5202,-1.5202,0,0,-1.4648,-1.4681,-1.4711,-1.4779,-1.481,-1.4861,-1.4836,-1.4891,-1.4929,-1.4926,-1.4997,-1.5022,-1.5069,-1.5148,-1.5184,-1.5171,-1.5302,-1.5265,-1.527,-1.5274,-1.5319,-1.533,-1.534,-1.5206,-1.5205,-1.5205,0,0,-1.4724,-1.4754,-1.4811,-1.4842,-1.4888,-1.4906,-1.492,-1.4966,-1.4982,-1.5053,-1.5052,-1.5098,-1.5187,-1.5221,-1.525,-1.5339,-1.5336,-1.5355,-1.5394,-1.5438,-1.5448,-1.5456,-1.5488,-1.5499,-1.5362,-1.5362,-1.5362,0,-1.4753,-1.4829,-1.4841,-1.4897,-1.4927,-1.4925,-1.4984,-1.5014,-1.5075,-1.5096,-1.508,-1.5191,-1.5223,-1.531,-1.5331,-1.5355,-1.5371,-1.5349,-1.5445,-1.5454,-1.5462,-1.5492,-1.5504,-1.5364,-1.5364,-1.5364,-1.5364,0,-1.4862,-1.4914,-1.4955,-1.5012,-1.5047,-1.5104,-1.5127,-1.5161,-1.5166,-1.5186,-1.5258,-1.5297,-1.5354,-1.5375,-1.5381,-1.5463,-1.5453,-1.5441,-1.5412,-1.5475,-1.5504,-1.5516,-1.5367,-1.5366,-1.5366,-1.5365,0,0,-1.4953,-1.5015,-1.503,-1.5056,-1.5107,-1.5148,-1.5205,-1.526,-1.5289,-1.5331,-1.538,-1.5455,-1.5443,-1.5476,-1.5486,-1.5525,-1.5593,-1.5508,-1.551,-1.5523,-1.5685,-1.5693,-1.5706,-1.5591,-1.5593,-1.5595,-1.5681,0,-1.5034,-1.5133,-1.5146,-1.5235,-1.5284,-1.5282,-1.5332,-1.5369,-1.539,-1.5435,-1.5458,-1.551,-1.5492,-1.5511,-1.555,-1.5576,-1.5626,-1.557,-1.5638,-1.564,-1.5625,-1.5722,-1.5731,-1.581,-1.5692,-1.5694,-1.5695,0,-1.5143,-1.5186,-1.5278,-1.5322,-1.5343,-1.5387,-1.5438,-1.5481,-1.5524,-1.5536,-1.5572,-1.5577,-1.5637,-1.5605,-1.5689,-1.5651,-1.568,-1.5697,-1.57,-1.5707,-1.5671,-1.5731,-1.5835,-1.5847,-1.5713,-1.5712,-1.5711,0,-1.5199,-1.5281,-1.5347,-1.5369,-1.5422,-1.5453,-1.5476,-1.5517,-1.5548,-1.5593,-1.5614,-1.5666,-1.5695,-1.5736,-1.5755,-1.573,-1.5838,-1.5808,-1.585,-1.5849,-1.5873,-1.5871,-1.5983,-1.5891,-1.5891,-1.5891,-1.5891,0,-1.5288,-1.5345,-1.5373,-1.5413,-1.5477,-1.5492,-1.5556,-1.5578,-1.5614,-1.566,-1.5663,-1.5706,-1.5729,-1.5776,-1.5792,-1.5859,-1.5872,-1.5884,-1.5887,-1.5883,-1.5882,-1.5902,-1.5897,-1.5894,-1.5893,-1.5893,-1.5892,0,-1.5362,-1.5383,-1.5455,-1.5498,-1.5511,-1.5556,-1.5594,-1.5634,-1.5653,-1.5711,-1.5726,-1.5757,-1.5812,-1.5835,-1.5904,-1.5915,-1.5991,-1.5991,-1.5976,-1.5978,-1.6018,-1.6014,-1.6147,-1.6165,-1.6062,-1.6063,-1.6064,0,-1.5418,-1.5461,-1.5509,-1.5539,-1.5563,-1.5612,-1.5644,-1.5661,-1.5694,-1.5745,-1.5779,-1.5834,-1.5879,-1.5968,-1.5998,-1.6051,-1.6051,-1.6094,-1.6059,-1.6054,-1.6052,-1.6049,-1.6053,-1.6101,-1.6102,-1.6103,-1.6103,0,-1.5514,-1.5522,-1.5567,-1.5616,-1.5653,-1.5693,-1.5732,-1.5757,-1.578,-1.5817,-1.5873,-1.5908,-1.5977,-1.6032,-1.6086,-1.6112,-1.6112,-1.6114,-1.6126,-1.6123,-1.6112,-1.6118,-1.5994,-1.6111,-1.611,-1.611,-1.6109,-1.6109,-1.558,-1.5619,-1.5658,-1.5708,-1.5738,-1.5775,-1.5814,-1.5838,-1.5884,-1.594,-1.5948,-1.6008,-1.605,-1.6122,-1.615,-1.6198,-1.6187,-1.6205,-1.621,-1.6214,-1.6216,-1.6105,-1.6208,-1.6208,-1.6208,-1.6208,-1.6208,0,-1.5676,-1.5701,-1.5747,-1.58,-1.584,-1.5835,-1.5877,-1.5911,-1.5963,-1.6001,-1.6045,-1.6109,-1.6162,-1.6196,-1.625,-1.6282,-1.6283,-1.6295,-1.6293,-1.6299,-1.6223,-1.6207,-1.6293,-1.6293,-1.6293,-1.6293,-1.6293,-1.6293,-1.573,-1.5795,-1.5807,-1.5887,-1.5912,-1.5969,-1.5994,-1.6028,-1.6058,-1.6129,-1.6172,-1.6193,-1.623,-1.6286,-1.6335,-1.6344,-1.6364,-1.6376,-1.6384,-1.6313,-1.6304,-1.6296,-1.628,-1.6381,-1.6381,-1.6456,-1.6457,-1.6457]},{"header":{"parameterUnit":"m.s-1","parameterCategory":1,"la1":30.2991,"la2":30.254,"lo1":-89.0895,"lo2":-89.0444,"dy":0.0017,"dx":0.0017,"nx":28,"ny":28,"refTime":"2024-08-20T21:00:00:Z","depth":0,"parameterNumber":3,"parameterNumberName":"V-component_of_WINDS"},"data":[0,0,0,0,0,0,0,0,0,0,0,0,0,0,0,0,0,0,0,0,0,0,0,0,0,0,0,0,0,0,0,0,0,0,0,0,0,0,0,0,0,0,0,0,0,0,0,0,0,0,0,0,0,0,0,0,0,0,-2.4313,-2.4312,0,-2.4245,-2.4244,-2.4243,-2.4178,-2.4177,-2.4176,-2.4175,-2.41,-2.4099,-2.4098,0,0,0,0,0,0,0,0,0,0,0,0,0,-2.4384,-2.4383,-2.4313,-2.4312,-2.4311,-2.4245,-2.4244,-2.4243,-2.4178,-2.4177,-2.4176,-2.4175,-2.4101,-2.4099,-2.4098,0,0,0,0,0,0,0,0,0,0,0,0,0,-2.4338,-2.4382,-2.4313,-2.4271,-2.4266,-2.4245,-2.4244,-2.4243,-2.4178,-2.4177,-2.4175,-2.4174,-2.4101,-2.4099,-2.4098,-2.4111,0,0,-2.4092,-2.4091,0,0,0,0,0,0,0,0,-2.4341,-2.4335,-2.4278,-2.4274,-2.4269,-2.4218,-2.4241,-2.4198,-2.4178,-2.4211,-2.4175,-2.4174,-2.414,-2.4135,-2.4125,-2.4107,-2.4104,-2.4092,-2.4091,-2.409,-2.4089,0,0,0,0,0,0,0,-2.4344,-2.4338,-2.4286,-2.4277,-2.4272,-2.4254,-2.4246,-2.4233,-2.4183,-2.4208,-2.4204,-2.4197,-2.4137,-2.4127,-2.4123,-2.4103,-2.4092,-2.409,-2.4089,-2.4088,-2.4093,-2.4094,0,0,0,0,0,0,-2.4354,-2.4341,-2.4288,-2.4284,-2.4303,-2.4254,-2.4245,-2.4236,-2.4183,-2.4174,-2.4198,-2.4194,-2.4131,-2.4125,-2.412,-2.4132,-2.409,-2.4088,-2.4087,-2.4092,-2.4093,-2.4095,0,0,0,0,0,0,-2.4356,-2.435,-2.4291,-2.4311,-2.4302,-2.4254,-2.4244,-2.4235,-2.4224,-2.4175,-2.4166,-2.4196,-2.4129,-2.4122,-2.4114,-2.4128,-2.4087,-2.4086,-2.409,-2.4092,-2.4094,-2.4156,0,0,0,0,0,0,-2.4358,-2.4351,-2.4356,-2.4312,-2.4301,-2.4287,-2.4245,-2.4235,-2.4222,-2.4216,-2.4171,-2.4163,-2.4128,-2.4117,-2.4112,-2.4125,-2.4084,-2.4089,-2.4091,-2.4093,-2.4153,-2.416,-2.4167,0,0,0,0,0,-2.4361,-2.4375,-2.4357,-2.4351,-2.4307,-2.4288,-2.4282,-2.4243,-2.4223,-2.4228,-2.4196,-2.4164,-2.4128,-2.4117,-2.4111,-2.4123,-2.4088,-2.4091,-2.4093,-2.415,-2.4159,-2.4166,0,0,0,0,0,0,-2.4421,-2.4369,-2.4348,-2.4348,-2.4324,-2.4277,-2.4282,-2.4254,-2.4233,-2.4228,-2.4179,-2.417,-2.4167,-2.4144,-2.4133,-2.4133,-2.4103,-2.4105,-2.4148,-2.4157,-2.4163,-2.4168,-2.4083,0,0,0,0,0,-2.4435,-2.4425,-2.4379,-2.4384,-2.4373,-2.433,-2.432,-2.4293,-2.4264,-2.4253,-2.4221,-2.4193,-2.4176,-2.4165,-2.4146,-2.415,-2.4139,-2.4155,-2.4162,-2.4168,-2.417,-2.417,-2.4177,-2.4104,-2.4104,-2.4104,0,0,-2.4462,-2.4432,-2.4429,-2.4396,-2.4373,-2.4363,-2.4321,-2.4312,-2.4304,-2.4251,-2.4241,-2.4217,-2.4183,-2.4181,-2.4179,-2.4162,-2.4188,-2.4171,-2.4177,-2.4175,-2.4174,-2.4181,-2.4187,-2.4106,-2.4105,-2.4105,0,0,-2.4507,-2.4484,-2.4486,-2.4465,-2.4432,-2.4403,-2.4404,-2.4362,-2.4345,-2.4335,-2.4295,-2.4284,-2.4255,-2.4232,-2.4217,-2.4256,-2.4225,-2.4251,-2.4286,-2.4287,-2.4292,-2.4297,-2.4311,-2.4316,-2.4253,-2.4253,-2.4253,0,-2.4545,-2.453,-2.449,-2.4484,-2.4471,-2.4424,-2.4425,-2.4406,-2.4368,-2.4359,-2.4342,-2.4305,-2.4279,-2.4271,-2.4281,-2.427,-2.4268,-2.4255,-2.4295,-2.43,-2.4303,-2.4316,-2.4321,-2.4256,-2.4256,-2.4255,-2.4255,0,-2.4578,-2.4568,-2.4573,-2.454,-2.4527,-2.4524,-2.4484,-2.4475,-2.4449,-2.4422,-2.4413,-2.438,-2.4354,-2.435,-2.4324,-2.4339,-2.433,-2.4305,-2.4273,-2.4315,-2.4325,-2.4329,-2.4261,-2.426,-2.4259,-2.4258,0,0,-2.4657,-2.4604,-2.4606,-2.4591,-2.4552,-2.4543,-2.4538,-2.4514,-2.4508,-2.4484,-2.4478,-2.4455,-2.4432,-2.4415,-2.4386,-2.4387,-2.4419,-2.4361,-2.436,-2.4373,-2.4434,-2.4453,-2.4459,-2.4399,-2.44,-2.4401,-2.4436,0,-2.4695,-2.4686,-2.4651,-2.4651,-2.4641,-2.4598,-2.4594,-2.4569,-2.4544,-2.4531,-2.4502,-2.4487,-2.4458,-2.4447,-2.4447,-2.4416,-2.4431,-2.4413,-2.4392,-2.4392,-2.4402,-2.4464,-2.4484,-2.4519,-2.444,-2.4441,-2.4441,0,-2.4738,-2.4718,-2.4719,-2.4681,-2.4676,-2.4673,-2.4649,-2.4637,-2.4608,-2.459,-2.4572,-2.454,-2.4532,-2.4504,-2.4491,-2.448,-2.447,-2.4453,-2.4454,-2.4449,-2.4419,-2.4461,-2.4529,-2.4534,-2.4448,-2.4447,-2.4447,0,-2.4795,-2.4769,-2.4766,-2.4754,-2.4711,-2.471,-2.4691,-2.4661,-2.4649,-2.4628,-2.462,-2.4597,-2.4584,-2.4567,-2.453,-2.4513,-2.4521,-2.449,-2.4505,-2.4506,-2.4508,-2.4508,-2.4575,-2.4503,-2.4502,-2.4502,-2.4502,0,-2.4841,-2.4843,-2.4792,-2.479,-2.479,-2.475,-2.4751,-2.4728,-2.4702,-2.4694,-2.4655,-2.4648,-2.4599,-2.4586,-2.4557,-2.4551,-2.4546,-2.453,-2.4522,-2.4533,-2.4535,-2.4525,-2.4521,-2.4504,-2.4503,-2.4503,-2.4503,0,-2.4905,-2.4871,-2.4865,-2.4825,-2.4815,-2.4817,-2.4782,-2.4778,-2.4751,-2.4742,-2.4737,-2.4694,-2.4678,-2.4639,-2.4611,-2.4591,-2.4593,-2.4578,-2.4603,-2.4598,-2.4615,-2.4614,-2.4677,-2.4683,-2.4608,-2.4609,-2.4609,0,-2.4936,-2.4936,-2.4897,-2.489,-2.4874,-2.4862,-2.4851,-2.4811,-2.48,-2.4768,-2.4768,-2.4749,-2.4731,-2.4706,-2.4671,-2.465,-2.4634,-2.4658,-2.4631,-2.4642,-2.4634,-2.4635,-2.4634,-2.4664,-2.4665,-2.4666,-2.4666,0,-2.4994,-2.4978,-2.4964,-2.4944,-2.4932,-2.4914,-2.4894,-2.489,-2.4845,-2.4835,-2.4819,-2.4805,-2.4778,-2.4759,-2.4732,-2.4711,-2.4681,-2.4676,-2.4678,-2.4689,-2.4703,-2.4695,-2.4619,-2.4674,-2.4673,-2.4673,-2.4672,-2.4672,-2.5042,-2.5041,-2.5014,-2.4999,-2.4981,-2.4963,-2.4958,-2.4931,-2.4917,-2.4893,-2.487,-2.4856,-2.4827,-2.4789,-2.4771,-2.4758,-2.4743,-2.4746,-2.4747,-2.4748,-2.4753,-2.4706,-2.4753,-2.4753,-2.4752,-2.4752,-2.4752,0,-2.5098,-2.5079,-2.5067,-2.5041,-2.5029,-2.5005,-2.4981,-2.4973,-2.4961,-2.4938,-2.4922,-2.4903,-2.4885,-2.485,-2.4828,-2.4825,-2.481,-2.482,-2.4819,-2.4815,-2.4768,-2.4768,-2.4832,-2.4832,-2.4832,-2.4832,-2.4832,-2.4832,-2.5126,-2.5123,-2.5104,-2.5091,-2.5071,-2.5058,-2.5047,-2.503,-2.5012,-2.4993,-2.4978,-2.4957,-2.4928,-2.4904,-2.4886,-2.4876,-2.487,-2.4884,-2.487,-2.4826,-2.4818,-2.4811,-2.4811,-2.4883,-2.4883,-2.4918,-2.4918,-2.4919]}]]